Weather History for Guthrie, OK

Change the Weather History Date:

Sunday, November 3, 2013

  Actual Average Record
Temperature  
Mean Temperature 55 °F -  
Max Temperature 64 °F 63 °F 84 °F (1978)
Min Temperature 46 °F 40 °F 11 °F (1991)
Degree Days  
Heating Degree Days 10    
Growing Degree Days 5 (Base 50)    
Moisture  
Dew Point 34 °F    
Average Humidity 45    
Maximum Humidity 58    
Minimum Humidity 34    
Precipitation  
Precipitation 0.00 in - - ()
Sea Level Pressure  
Sea Level Pressure 30.04 in    
Wind  
Wind Speed 12 mph (SSE)    
Max Wind Speed 23 mph    
Max Gust Speed 36 mph    
Visibility 10 miles    
Events      
Averages and records for this station are not official NWS values.
T = Trace of Precipitation, MM = Missing Value Source: NWS Daily Summary

Daily Weather History Graph

Daily Weather History Graph

Search for Another Location

Airport:

Trip Planner

Search our weather history database for the weather conditions in past years. The results will help you decide how hot, cold, wet, or windy it might be!

Date:

Astronomy

Nov. 03, 2013 Rise Set
Actual Time 6:54 AM CST 5:31 PM CST
Civil Twilight 6:27 AM CST 5:58 PM CST
Nautical Twilight 5:57 AM CST 6:28 PM CST
Astronomical Twilight 5:27 AM CST 6:58 PM CST
Moon 6:58 AM CST (11/3) 5:48 PM CST (11/3)
Length of Visible Light 11h 30m
Length of Day
10h 37m
New Moon, 0% of the Moon is Illuminated
Nov 3
New Moon
Nov 9
First Quarter
Nov 17
Full
Nov 25
Last Quarter
Dec 2
New

Hourly Weather History & Observations

Time (CST) Temp. Windchill Dew Point Humidity Pressure Visibility Wind Dir Wind Speed Gust Speed Precip Events Conditions
12:53 AM 48.0 °F - 28.9 °F 48% 30.17 in 10.0 mi SE 6.9 mph - N/A   Clear
1:53 AM 46.9 °F - 30.0 °F 52% 30.16 in 10.0 mi SSE 8.1 mph - N/A   Clear
1:53 AM 48.0 °F - 30.0 °F 50% 30.14 in 10.0 mi SSE 8.1 mph - N/A   Clear
2:53 AM 46.9 °F - 30.0 °F 52% 30.14 in 10.0 mi SSE 9.2 mph - N/A   Clear
3:53 AM 48.0 °F - 30.9 °F 52% 30.13 in 10.0 mi SSE 9.2 mph - N/A   Clear
4:53 AM 46.0 °F 41.9 °F 32.0 °F 58% 30.12 in 10.0 mi SSE 8.1 mph - N/A   Clear
5:53 AM 46.9 °F - 32.0 °F 56% 30.12 in 10.0 mi South 10.4 mph - N/A   Clear
6:53 AM 48.0 °F - 32.0 °F 54% 30.11 in 10.0 mi South 12.7 mph 19.6 mph N/A   Clear
7:53 AM 50.0 °F - 33.1 °F 52% 30.12 in 10.0 mi South 15.0 mph 24.2 mph N/A   Clear
8:53 AM 54.0 °F - 34.0 °F 47% 30.12 in 10.0 mi South 16.1 mph 24.2 mph N/A   Clear
9:53 AM 55.9 °F - 34.0 °F 44% 30.09 in 10.0 mi South 16.1 mph 24.2 mph N/A   Clear
10:53 AM 61.0 °F - 34.0 °F 36% 30.08 in 10.0 mi South 19.6 mph 27.6 mph N/A   Clear
11:53 AM 61.0 °F - 33.1 °F 35% 30.05 in 10.0 mi South 21.9 mph 29.9 mph N/A   Clear
12:53 PM 63.0 °F - 34.0 °F 34% 30.00 in 10.0 mi South 20.7 mph 27.6 mph N/A   Clear
1:53 PM 63.0 °F - 35.1 °F 35% 29.97 in 10.0 mi South 17.3 mph 26.5 mph N/A   Clear
2:53 PM 64.9 °F - 36.0 °F 34% 29.93 in 10.0 mi SSE 18.4 mph 31.1 mph N/A   Clear
3:53 PM 62.1 °F - 35.1 °F 37% 29.94 in 10.0 mi SSE 12.7 mph 26.5 mph N/A   Clear
4:53 PM 60.1 °F - 36.0 °F 41% 29.91 in 10.0 mi SSE 13.8 mph 23.0 mph N/A   Clear
5:53 PM 59.0 °F - 37.0 °F 44% 29.91 in 10.0 mi SSE 15.0 mph 25.3 mph N/A   Clear
6:53 PM 59.0 °F - 37.0 °F 44% 29.94 in 10.0 mi South 18.4 mph 24.2 mph N/A   Clear
7:53 PM 59.0 °F - 37.0 °F 44% 29.94 in 10.0 mi South 18.4 mph 26.5 mph N/A   Clear
8:53 PM 59.0 °F - 37.0 °F 44% 29.93 in 10.0 mi South 17.3 mph 29.9 mph N/A   Clear
9:53 PM 57.9 °F - 39.0 °F 49% 29.92 in 10.0 mi South 23.0 mph 35.7 mph N/A   Clear
10:53 PM 59.0 °F - 39.9 °F 49% 29.91 in 10.0 mi South 19.6 mph 32.2 mph N/A   Clear